Regional Weather Roundup
Issued by NWS Binghamton, NY

Home | Current Version | Previous Version | Text Only | Print | Product List | Glossary On
Versions: 1 2 3 4 5 6 7 8 9 10 11 12 13 14 15 16 17 18 19 20 21 22 23 24 25 26 27 28 29 30 31 32 33 34 35 36 37 38 39 40 41 42 43 44 45 46 47 48 49 50
000
ASUS41 KBGM 190510
RWRBGM
RWRBGM
BINGHAMTON REGIONAL WEATHER ROUNDUP
NATIONAL WEATHER SERVICE BINGHAMTON NY
100 AM EDT FRI SEP 19 2014

Note: "fair" indicates few or no clouds below 12,000 feet with no
significant weather and/or obstructions to visibility.

* = Station(s) that does not report precipitation, such as rain,
snow, etc, also no thunder or fog.

!NYZ009-015>018-022>025-036-037-044>046-055>057-062-190600
...CENTRAL NEW YORK...

CITY           SKY/WX    TMP DP  RH WIND       PRES   REMARKS
BINGHAMTON     CLEAR     45  42  89 N5        30.21R
CORTLAND       FAIR      39  39 100 CALM      30.24R
DANSVILLE      CLOUDY    45  45 100 CALM      30.25R
ELMIRA         CLEAR     41  40  96 CALM      30.23R
ITHACA         CLEAR     42  40  93 E3        30.24R
HAMILTON       CLEAR     43  37  81 CALM      30.23R
MONTICELLO     CLEAR     48  45  87 W3        30.19R
NORWICH        CLEAR     43  39  87 N3        30.24R
ONEONTA        CLEAR     45  39  81 CALM      30.20R
PENN YAN       CLEAR     45  42  89 CALM      30.24R
ROME           CLEAR     42  36  79 VRB3      30.25R
SIDNEY         CLEAR     45  45 100 CALM      30.22R
SYRACUSE       CLEAR     42  39  89 CALM      30.25R
$$

!PAZ038>040-043-044-047-048-072-190600
...NORTHEAST PENNSYLVANIA...

CITY           SKY/WX    TMP DP  RH WIND       PRES   REMARKS
HAZLETON       CLEAR     52  46  82 N6        30.20S
SCRANTON       CLOUDY    56  46  69 NW8       30.19R
TOWANDA*       PTCLDY    52  46  82 N6        30.22R
$$
&&
KEY
WCI = WIND CHILL INDEX
VSB = VISIBILITY
HX  = HEAT INDEX
$$



USA.gov is the U.S. government's official web portal to all federal, state and local government web resources and services.